Location: Maddington
(51.2000°N, 1.9167°W)
Time: 13:54:48
(UTC+00:00)

Lacrosse 5 rocket - Pass Details

Date: 18 September 2020
Orbit: 460 x 636 km, 57.0° (Epoch: 25 October)

Event Time Altitude Azimuth Distance (km) Brightness Sun altitude
Rises 21:24:35 0° 289° (WNW) 2,818 5.9 -27.8°
Reaches altitude 10° 21:26:55 10° 297° (WNW) 1,943 5.0 -28.0°
Enters shadow 21:30:46 40° 355° (N) 913 2.7 -28.5°
